Location: Colonia Mina de C?rbuni
(46.1667°N, 22.7167°E)
Time: 17:42:16
(UTC+00:00)

Cosmos 2278 Rocket - Pass Details

Date: 04 February 2023
Orbit: 841 x 845 km, 71.0° (Epoch: 29 March)

Event Time Altitude Azimuth Distance (km) Brightness Sun altitude
Rises 16:14:32 0° 342° (NNW) 3,416 5.4 -6.8°
Reaches altitude 10° 16:19:21 10° 18° (NNE) 2,476 4.3 -7.6°
Maximum altitude 16:20:47 11° 33° (NNE) 2,411 4.1 -7.8°
Drops below altitude 10° 16:22:13 10° 47° (NE) 2,473 4.1 -8.1°
Enters shadow 16:23:15 - 57° (ENE) 2,592 4.1 -8.2°
